RH
56 53 46 45 38 39 40 39 37 35 33 26 21 19 18 17 17 17 18 18 20 25 26 25 23 19 20 20 21 21 18 16 15 14 15 15 15 16 15 14 16 18 20 22 25 25 26
60 56 44 45 40 37 36 37 38 37 33 31 28 24 22 22 22 21 22 23 22 24 26 26 21 17 18 19 18 19 18 17 16 15 14 15 15 15 16 17 16 18 17 19 22 25 25
63 56 41 41 44 38 36 35 34 34 35 32 30 30 25 24 23 25 27 28 26 26 24 24 22 20 16 16 15 16 17 15 16 15 14 14 15 15 16 18 19 18 20 18 19 21 24
63 57 40 38 41 43 39 36 34 33 32 33 31 30 30 29 25 25 25 25 25 26 23 21 22 20 18 14 14 14 14 14 14 15 15 15 16 18 17 19 20 20 22 23 21 25 25
60 55 40 37 40 41 41 40 36 34 33 32 32 32 31 29 29 28 25 25 26 23 24 23 20 20 18 15 15 14 14 14 15 16 17 17 18 20 19 22 22 22 27 27 26 29 28
57 52 42 36 41 43 42 40 39 37 34 33 32 31 31 30 30 29 28 26 24 25 23 22 19 19 18 17 16 16 16 16 17 18 18 19 20 21 21 23 28 27 32 32 30 29 28
55 52 45 40 41 44 44 43 41 38 37 35 33 32 30 30 30 29 29 28 26 24 24 23 22 18 17 16 18 17 18 18 19 20 23 22 22 23 23 23 25 27 29 31 30 31 29
55 55 48 41 44 44 43 43 43 41 38 36 34 33 31 30 29 29 28 28 28 26 26 25 24 23 20 18 19 20 21 21 22 22 24 24 23 24 25 26 26 29 30 32 32 33 32
50 57 56 43 40 45 46 42 42 43 42 39 37 35 33 31 29 30 29 29 28 28 27 26 25 25 24 20 21 21 23 24 24 25 26 26 23 25 26 28 31 30 32 33 36 30 28
47 51 58 55 49 41 40 44 43 40 41 42 40 36 35 34 33 32 31 30 30 29 26 27 27 28 26 22 23 23 25 27 27 28 29 25 23 26 28 30 31 32 32 33 34 38 40
35 45 52 56 54 53 46 39 40 42 40 39 42 41 39 35 35 34 33 32 31 30 48 29 29 27 27 25 24 26 27 29 31 31 31 28 23 25 28 29 32 35 32 33 33 38 35
12 29 41 47 52 55 56 52 45 41 42 42 39 41 41 41 36 35 35 34 33 31 37 29 29 29 30 29 28 27 29 32 33 32 32 27 25 24 28 29 30 33 33 31 35 37 57
9 10 21 37 44 49 53 56 56 54 46 39 42 43 41 43 42 40 37 36 35 39 32 32 32 32 33 32 31 30 32 34 36 38 34 32 27 25 28 33 36 37 40 47 50 53 34
12 8 9 13 29 41 46 50 52 53 55 52 48 38 37 40 43 44 42 39 36 35 33 35 36 36 36 35 33 32 35 37 38 40 38 33 33 31 34 43 44 44 44 47 47 40 35
14 14 11 9 9 17 31 39 44 45 47 49 49 52 50 41 37 40 45 44 40 38 40 42 41 38 36 36 37 37 39 42 41 40 39 41 38 37 45 49 45 50 51 49 54 54 56
17 15 14 13 9 10 11 17 28 37 40 41 42 44 50 49 49 41 40 45 47 49 49 47 45 42 40 39 40 41 43 43 45 47 50 47 52 51 51 50 49 55 56 55 57 54 51
19 17 16 15 14 11 10 12 14 19 26 31 35 35 38 42 43 45 49 42 38 44 52 51 50 47 46 45 44 44 45 47 50 52 52 50 60 61 59 56 57 62 62 59 58 60 57
20 18 18 17 15 15 14 11 10 12 17 22 27 34 43 40 42 44 48 48 48 48 53 58 56 54 52 52 50 49 49 52 54 56 58 60 61 69 66 65 66 70 70 70 71 70 92
19 18 18 18 17 16 14 12 11 11 11 12 16 24 31 39 52 52 53 52 48 46 52 64 66 64 62 59 56 54 55 56 59 61 64 68 74 75 70 72 72 78 87 91 84 91 98
23 22 19 18 17 15 14 14 14 14 14 17 22 26 26 26 41 52 58 60 68 67 67 67 61 55 60 63 63 66 66 65 67 68 72 86 88 82 85 86 98 99 99 98 98 98 84
72 53 42 40 38 37 22 18 24 34 39 52 56 60 52 43 51 64 70 77 67 68 77 84 87 84 63 71 78 78 76 74 80 96 99 99 98 99 94 98 99 95 100 92 100 81 99
96 92 88 80 80 66 71 64 72 80 88 86 88 93 92 85 76 72 70 62 77 81 88 91 91 91 92 84 77 86 88 91 99 100 100 99 98 99 97 91 92 86 87 74 67 81 100
100 98 99 95 85 80 75 82 84 75 69 81 84 95 97 92 92 91 90 91 95 95 94 94 97 98 99 97 100 99 100 99 100 100 99 100 100 99 97 98 98 97 67 63 62 67 78
100 100 100 100 100 100 100 100 100 97 91 86 92 92 96 98 95 88 86 100 100 100 100 97 95 98 90 97 95 93 89 89 90 81 91 99 100 99 97 99 93 61 63 66 73 84 90
99 99 100 100 100 99 100 100 100 100 100 98 99 100 100 98 99 98 95 100 99 100 93 95 85 98 99 100 98 98 99 94 72 77 79 83 100 98 98 98 81 70 69 69 77 94 98
99 99 99 99 98 100 100 100 97 99 99 99 99 99 99 99 95 92 100 99 100 98 95 82 86 92 98 100 99 99 97 94 90 83 76 82 95 99 98 98 94 73 72 83 100 100 94
9 4 4 12 32 35 41 55 52 45 40 72 86 95 99 98 98 99 99 100 100 98 99 97 82 87 96 98 99 99 98 100 98 92 95 97 98 97 99 98 96 82 76 100 98 88 85
26 22 17 10 4 2 2 3 6 10 15 19 29 64 100 95 99 99 100 100 99 99 99 98 100 97 99 100 100 99 100 99 99 99 98 95 90 98 95 98 94 88 97 98 96 96 94
37 31 25 19 14 8 4 2 2 3 4 4 5 18 69 99 96 93 99 95 98 99 98 98 98 99 98 98 98 98 98 98 99 98 95 98 96 91 100 91 95 96 97 98 96 97 98
Wind_Speed
12 13 13 13 14 15 16 18 18 20 20 19 17 16 15 13 12 10 9 8 7 7 8 8 9 9 7 9 7 7 7 8 9 10 11 9 7 6 6 7 5 8 7 4 6 8 9
10 11 12 13 15 15 15 15 16 18 19 18 16 14 12 11 10 9 7 6 6 5 6 7 9 9 8 8 7 8 8 8 8 10 8 9 8 6 6 6 7 4 8 8 8 10 10
8 10 12 13 13 14 13 13 14 15 15 16 16 13 11 9 8 7 6 7 7 5 4 6 7 9 10 8 8 8 7 8 8 8 8 8 9 8 8 5 8 8 5 9 11 12 16
7 9 11 12 11 11 12 12 12 12 13 13 13 13 11 9 7 5 3 3 4 4 6 7 5 7 6 7 7 7 7 7 7 6 8 9 9 9 9 11 8 8 5 9 13 19 15
6 7 9 10 11 10 10 10 11 11 10 10 10 10 10 10 8 6 4 3 3 4 6 5 7 4 4 6 7 7 6 6 8 7 8 8 9 9 11 14 7 7 8 15 14 19 18
5 6 7 8 9 10 10 10 9 9 9 8 8 8 8 7 7 7 6 5 5 4 4 4 4 2 4 5 5 6 6 5 8 8 7 8 9 10 10 13 5 12 13 18 19 22 19
3 5 6 7 8 9 9 9 9 8 8 8 8 7 7 6 7 8 7 6 5 4 4 4 4 3 4 4 5 5 5 5 8 8 9 8 7 9 9 12 11 13 17 18 24 17 30
1 3 5 6 7 7 8 8 8 8 8 7 7 8 8 7 7 8 7 7 6 6 7 7 5 5 5 5 4 5 6 7 8 8 9 9 7 10 10 12 12 15 16 18 17 26 29
2 1 3 4 5 6 7 8 8 8 8 8 7 7 7 7 6 7 7 7 6 7 9 10 10 7 5 6 5 5 7 8 9 8 10 9 8 11 11 13 14 16 12 23 23 30 25
5 4 3 4 5 6 6 7 7 8 8 8 8 8 8 8 7 7 8 7 7 8 7 6 4 4 6 7 4 7 8 9 9 9 11 6 10 12 12 12 16 18 17 26 27 21 8
8 7 6 5 5 6 6 7 7 8 9 9 9 9 9 9 8 9 8 8 8 8 3 3 3 4 7 7 8 8 9 10 10 12 9 10 12 13 13 11 15 16 21 26 24 13 13
11 11 10 9 8 8 7 8 8 9 9 9 10 10 10 10 9 8 8 9 9 3 3 3 4 6 10 10 10 11 11 11 13 10 13 12 15 13 9 11 17 17 24 23 12 6 4
12 13 14 13 12 11 10 9 9 9 10 10 10 11 11 11 10 10 9 9 5 3 5 3 7 12 12 13 13 12 12 12 13 10 10 14 13 10 10 12 18 13 17 7 3 2 4
15 14 15 16 16 15 13 13 12 12 12 12 11 11 12 11 11 11 11 9 3 3 9 10 13 17 18 14 11 9 13 16 15 14 11 7 7 9 8 17 14 15 9 4 6 6 12
18 18 17 17 18 18 17 17 16 16 15 15 14 13 13 12 12 12 11 6 3 7 10 17 18 13 9 9 12 14 15 20 9 9 7 7 6 11 22 18 11 7 7 9 7 11 7
21 21 21 20 20 20 20 21 20 20 19 17 17 16 14 15 14 13 12 10 10 13 15 16 16 11 15 16 14 14 12 14 12 13 18 13 11 17 18 13 14 12 12 4 5 4 10
24 24 23 23 23 24 23 23 22 22 22 22 20 18 18 18 17 16 15 15 15 15 15 14 18 19 21 21 21 21 14 18 19 16 14 16 16 13 15 17 20 16 13 10 10 8 4
27 27 27 26 26 26 25 25 25 25 24 24 23 21 18 20 19 18 15 15 16 17 18 19 21 21 22 23 24 23 21 18 20 21 20 20 18 16 22 25 26 21 18 15 11 9 11
30 30 28 28 28 27 27 27 28 28 27 27 25 24 22 19 16 18 20 19 18 19 18 18 19 23 25 25 19 14 15 19 21 19 13 15 12 12 9 12 15 16 16 20 27 24 20
32 31 30 30 29 29 30 28 28 28 28 27 26 24 26 25 22 15 13 17 17 18 23 25 27 26 24 24 21 23 23 21 21 22 22 24 24 24 23 29 32 25 27 25 27 15 28
34 34 33 32 30 30 29 30 27 27 27 26 26 26 26 22 22 28 28 27 28 32 33 30 32 28 27 29 27 31 29 28 26 31 34 31 36 37 41 40 40 42 40 40 36 46 28
33 36 35 35 34 29 28 29 28 28 26 28 27 26 30 33 31 29 31 36 35 31 29 30 29 27 26 29 28 27 24 28 32 32 33 34 36 38 43 36 34 40 35 38 36 36 39
33 35 31 31 33 33 32 29 32 34 35 32 30 31 31 34 32 30 33 31 29 27 29 27 25 23 24 25 24 26 29 30 33 35 37 37 39 28 31 22 27 26 26 14 20 21 21
35 34 36 33 37 36 36 30 31 37 32 29 26 27 27 33 30 27 26 27 25 26 32 33 32 36 34 34 36 37 37 38 37 39 35 38 40 31 25 23 9 18 14 24 25 26 19
44 43 42 42 41 39 35 35 32 28 27 28 26 24 27 31 29 28 23 27 24 25 28 30 27 27 26 30 27 23 19 28 27 17 19 25 35 23 12 18 26 33 16 11 16 20 27
50 48 43 40 38 38 38 39 36 38 36 33 31 28 28 37 40 27 27 28 28 24 24 24 21 22 18 19 25 23 15 18 10 13 22 22 25 33 18 8 5 16 22 23 21 18 23
42 42 42 44 46 45 43 43 40 39 38 38 36 29 34 37 39 34 32 30 30 29 30 30 31 22 21 20 25 26 26 27 18 20 15 15 14 25 32 17 14 22 24 23 10 13 21
39 40 41 41 40 41 41 41 41 40 39 39 38 33 32 40 43 41 36 36 35 30 28 29 29 28 23 22 21 22 19 20 16 18 15 22 10 13 14 11 11 20 14 16 25 28 31
38 38 39 38 39 40 39 39 39 39 38 41 43 37 38 39 44 41 32 35 36 33 27 31 30 28 18 25 17 13 16 25 27 20 19 17 18 14 15 19 22 21 27 18 20 21 20
Wind_Direction
54 51 51 52 57 61 60 58 59 58 60 65 70 77 84 88 94 100 100 97 92 74 54 46 42 34 39 41 39 35 34 40 44 48 40 36 38 40 45 39 31 28 17 352 345 324 310
60 51 52 54 54 59 59 59 59 59 59 62 67 71 76 82 84 87 87 79 69 59 38 30 30 29 36 33 27 29 32 35 40 40 35 33 33 29 23 34 34 13 12 355 343 334 317
59 51 50 55 55 57 59 57 57 58 59 61 62 67 73 78 84 84 76 68 59 46 27 21 15 21 26 28 22 23 25 29 30 27 28 26 27 26 14 6 -0 8 356 352 347 337 324
60 51 50 52 55 56 57 58 57 56 56 56 58 60 61 65 63 57 46 37 38 35 35 26 354 10 16 17 16 17 16 22 18 8 13 18 14 18 14 1 346 0 348 345 334 337 334
65 54 49 48 47 48 49 51 51 49 48 48 51 52 51 53 52 44 27 360 340 16 9 352 4 333 356 358 9 7 6 12 6 357 2 359 3 5 2 2 355 344 330 341 336 333 326
67 56 47 46 43 40 40 41 40 39 37 37 38 43 41 37 40 36 24 11 343 309 335 350 2 350 327 355 354 356 358 355 360 354 346 342 354 354 353 1 350 337 341 337 337 322 322
66 48 41 39 36 32 32 32 31 27 23 20 17 17 20 17 17 14 11 1 340 315 296 313 318 322 322 301 342 350 349 350 348 345 342 335 330 342 344 351 348 341 338 331 337 327 324
91 45 31 24 25 25 24 23 23 22 17 11 5 359 355 355 354 352 350 347 336 304 290 268 281 301 318 320 303 339 349 340 332 327 329 326 302 332 331 343 342 341 336 337 335 324 327
251 332 5 9 5 8 10 12 14 13 13 8 1 354 347 342 338 332 332 331 325 314 294 277 262 280 310 317 303 318 331 327 323 319 322 317 302 321 322 332 332 338 325 333 326 328 327
254 271 307 332 342 348 349 356 2 2 3 5 360 356 352 346 337 338 337 334 332 325 294 276 260 263 317 318 293 313 321 328 323 316 321 308 314 312 314 322 328 333 330 333 324 324 305
254 264 276 290 306 320 329 332 337 346 350 352 353 353 352 349 349 347 342 340 334 326 308 300 283 306 323 314 310 308 315 320 320 312 306 299 310 302 303 311 322 318 328 328 315 307 305
260 260 261 268 279 291 304 317 326 332 336 339 343 346 347 346 344 340 340 337 329 314 261 303 315 326 319 315 305 302 302 311 317 308 306 293 307 295 290 305 323 317 330 324 311 310 256
264 263 261 262 266 273 284 297 308 319 324 328 332 339 341 343 341 339 339 341 326 233 318 313 320 320 316 311 302 296 299 310 307 311 300 304 303 287 281 305 320 318 338 310 287 253 302
266 268 268 266 267 271 277 284 290 298 308 315 324 325 326 331 333 335 336 339 274 291 319 317 322 315 306 303 298 292 303 306 302 298 291 290 292 292 292 306 295 309 328 290 295 303 305
269 271 272 272 269 270 273 276 281 286 290 297 304 312 320 320 321 321 324 321 278 303 307 310 311 310 301 304 300 298 302 298 285 298 280 291 256 286 299 299 274 300 289 286 272 282 285
267 269 272 275 275 273 273 275 278 281 284 286 291 297 302 307 311 311 310 299 296 299 302 302 300 287 287 297 294 297 296 287 286 294 293 280 278 291 287 280 274 278 281 266 243 281 294
268 269 270 274 278 280 281 282 281 281 283 284 286 291 294 295 298 299 299 294 295 295 294 293 290 285 286 289 288 288 274 284 287 288 290 284 279 279 274 278 285 273 247 250 249 244 271
271 274 276 277 277 281 286 286 285 284 285 287 289 291 290 290 294 291 287 289 287 287 290 291 288 285 285 288 286 284 277 280 285 290 285 283 275 261 274 276 275 262 252 243 232 258 231
269 273 274 277 280 280 281 284 285 287 288 288 289 289 289 287 290 285 284 283 286 292 295 295 291 289 290 288 289 280 277 283 286 280 273 283 267 289 279 265 266 264 266 261 256 255 244
268 269 269 272 274 277 280 281 282 285 287 291 293 293 289 289 286 270 267 281 286 288 292 293 292 289 290 289 284 281 284 281 280 273 277 276 261 249 257 272 285 274 279 271 261 240 262
268 268 269 272 272 273 274 278 280 283 287 291 294 292 286 277 271 281 284 280 283 291 292 287 283 283 286 282 281 281 284 279 273 272 272 264 272 276 279 281 286 285 282 282 261 275 253
265 267 266 269 270 269 275 278 277 277 281 285 293 295 290 282 282 282 281 284 289 293 285 286 280 284 275 272 276 282 275 278 285 288 294 293 282 288 286 289 289 286 282 289 289 283 263
268 268 275 277 269 265 270 280 278 274 277 286 287 285 279 282 284 283 282 283 283 287 285 279 276 266 267 264 263 270 284 289 290 290 288 288 277 266 268 280 283 287 294 274 284 285 289
254 256 259 267 271 274 281 275 274 284 284 281 281 282 288 284 284 287 292 285 284 283 277 278 281 280 282 276 272 271 273 276 277 279 280 274 270 265 270 279 258 277 282 296 288 285 276
256 259 261 262 264 268 268 264 265 265 267 279 279 269 275 274 280 286 292 293 285 282 282 288 289 291 296 284 286 282 280 286 288 270 262 262 259 257 255 248 266 286 276 278 283 287 289
259 260 259 258 258 265 265 263 271 262 263 263 255 266 269 273 278 282 283 288 289 287 287 287 288 298 292 275 277 271 262 278 273 282 282 271 260 245 251 238 249 270 294 280 282 271 280
267 267 267 267 269 271 269 267 266 266 270 270 269 265 262 267 267 276 274 280 277 277 284 289 297 289 288 287 270 257 258 263 262 268 275 268 269 244 253 254 257 272 277 276 267 278 287
266 264 264 265 264 263 262 262 262 262 264 264 263 252 260 264 269 272 270 276 279 277 280 289 288 287 287 262 260 264 250 256 245 248 277 287 265 264 269 238 254 260 254 269 282 291 295
264 264 263 262 262 263 261 260 260 260 259 259 260 256 252 252 269 270 264 268 273 276 270 274 269 275 254 281 266 263 274 276 285 285 291 263 253 251 254 263 265 275 292 290 291 290 291